sat.trackr.live / text

‹ back to catalog

LEMUR-2-ALEX-FULTON

NORAD 69905 · 2026-156AN

PAYLOAD ACTIVE UNKNOWN

§ Identity

Operator
Country
US
Launch date
2026-07-07
Launch site
AFWTR
Launch vehicle
Mass (kg)
RCS (m²)

External: N2YO · Heavens-Above · Gunter

§ Orbital elements

Epoch: 2026-09-19T23:01:55.038720Z

Period
96.55 min
Inclination
97.7482°
Eccentricity
0.0001795
Mean motion
14.91383890 rev/d
Perigee alt
592.4 km
Apogee alt
594.9 km
Semi-major
6,971.8 km
B*
2.0256e-4
RAAN
162.1264°
Arg perigee
249.5982°
Mean anomaly
110.5043°
Rev number
1,112

§ Raw data

LEMUR-2-ALEX-FULTON1 69905U 26156AN  26262.95966480  .00001966  00000+0  20256-3 0  99932 69905  97.7482 162.1264 0001795 249.5982 110.5043 14.91383890 11126

JSON: /api/v1/satellites/69905 · /tle

For live sub-satellite position, see the globe view (requires WebGL).

§ Visibility from observer

Set your observer location to see the next 7 days of passes ≥ 10°. The values pass through the URL so the page stays shareable.

No JS? Fill the form by hand. The geolocation button needs JavaScript.